DMSP 5D-2 F13 DEB, 42323

Orbit data source: Space-Track

DMSP 5D-2 F13 DEB, 42323 is space debris in SSO originally from a launch on Fri, 24 Mar 1995 UTC launched from the Air Force Western Test Range (AFWTR). Debris objects in space refer to the collection of defunct objects orbiting the Earth. Examples of debris include non-operational satellites, rocket bodies, and fragments generated from explosions, collisions, or faulty payload assembly.

Loading next visibility...
Identifier
42323, 1995-015JR
Orbit
SSO
Last TLE update
2 days ago
Origin
Manufacturer
Unknown
Mission
Spacecraft
Bus & Motor
Unknown
Mass
Unknown
Launch date (UTC)
1995-03-24 (30 years ago)
Launch vehicle
Unknown
Launch site
Air Force Western Test Range (AFWTR)
Object type
Payload
Rocket body
Debris
Shape & HBR
Unknown
Radar Cross Section
Small (<0.1 m²)

Expand to show TLE details & history

TLE from 2 days ago
0 DMSP 5D-2 F13 DEB
1 42323U 95015JR  25197.99188626  .00000203  00000-0  12258-3 0  9993
2 42323  98.8342 210.7165 0001595 255.8195 104.2802 14.17272584505207
Epoch: 2025-07-16T23:48Z
TLE epoch observation values (Epoch: 2025-07-16T23:48:18.972Z)
Latitude
-0.00009°
Longitude
-81.42664°
Altitude
837.782 km
Speed
7.434 km/s
True Right ascension
14h 02m 51s
True Declination
0° 00' 00"
Sunlit
Object was in daylight at epoch
Visualization orbit readout
Latitude
40.15762°
Longitude
-86.9504°
Altitude
841.284 km
Speed
7.435 km/s
Apparent Right ascension
17h 47m 50s
Apparent Declination
15° 18' 01"
Sunlit
Object is in daylight
Visualization observer readout
Local Sidereal Time
12:13:52
Azimuth
82.144° E
Elevation
14.666°
Doppler factor
1
Orbital elements
Apogee altitude
832.91 km
Perigee altitude
830.61 km
Semi-major axis
7,209.897 km
Eccentricity
0.00016
Inclination
98.8342°
RAAN
210.7165°
Arg. of periapsis
255.8195°
True anomaly
104.29791°
Mean anomaly
104.2802°
Eccentric anomaly
104.28906°
Mean motion
3.54527 °/min
Orbital period
101.54 mins
BSTAR
0.00012258
Loading maneuver chart data...
Loading SW <> Apogee altitude chart data...
|